Simultaneous Nadir Overpasses (SNOs) Predictions

Prediction of SNOs between GOES-15 and METOP-B Satellite Orbit:

Table of predicted SNOs for the next 14.0 days since TLE Epoch: 1/27/2024
Index Date Time (GOES-15) GOES-15 Lat,Lon METOP-B Lat,Lon Distance(km) Time Diff (sec)
1 01/28/2024 05:20:10 0.01, 61.72 0.00, 61.79 7.16 80
2 01/30/2024 17:15:55 -0.02, 61.69 0.08, 62.15 52.75 80
3 02/01/2024 05:34:50 0.02, 61.66 0.94, 57.57 466.64 80
4 02/02/2024 05:16:52 0.01, 61.64 -0.18, 62.55 102.94 80
5 02/03/2024 17:35:55 -0.01, 61.62 -0.83, 57.93 420.70 80
6 02/04/2024 17:12:38 -0.00, 61.62 0.29, 62.91 147.40 80
7 02/06/2024 05:31:32 -0.01, 61.62 0.71, 58.33 374.50 80
8 02/07/2024 05:13:34 -0.00, 61.61 -0.37, 63.32 194.32 80
9 02/08/2024 17:32:37 0.00, 61.59 -0.63, 58.70 329.64 80
10 02/09/2024 17:09:19 0.00, 61.59 0.45, 63.69 238.06 80
